[[{"header":{"parameterUnit":"m.s-1","parameterCategory":1,"la1":30.2991,"la2":30.254,"lo1":-89.0895,"lo2":-89.0444,"dy":0.0017,"dx":0.0017,"nx":28,"ny":28,"refTime":"2024-05-04T21:00:00:Z","depth":0,"parameterNumber":2,"parameterNumberName":"U-component_of_WINDS"},"data":[0,0,0,0,0,0,0,0,0,0,0,0,0,0,0,0,0,0,0,0,0,0,0,0,0,0,0,0,0,0,0,0,0,0,0,0,0,0,0,0,0,0,0,0,0,0,0,0,0,0,0,0,0,0,0,0,0,0,-2.2182,-2.2182,0,-2.2192,-2.2192,-2.2192,-2.2181,-2.2181,-2.218,-2.218,-2.219,-2.2191,-2.2191,0,0,0,0,0,0,0,0,0,0,0,0,0,-2.2153,-2.2154,-2.2182,-2.2182,-2.2182,-2.2192,-2.2192,-2.2192,-2.2181,-2.2181,-2.218,-2.218,-2.219,-2.2191,-2.2191,0,0,0,0,0,0,0,0,0,0,0,0,0,-2.2165,-2.2154,-2.2182,-2.2178,-2.2178,-2.2192,-2.2192,-2.2193,-2.2181,-2.2181,-2.218,-2.218,-2.219,-2.2191,-2.2192,-2.221,0,0,-2.2195,-2.2195,0,0,0,0,0,0,0,0,-2.2164,-2.2166,-2.2178,-2.2178,-2.2178,-2.2185,-2.2186,-2.2199,-2.2182,-2.218,-2.218,-2.2179,-2.2189,-2.219,-2.2193,-2.2211,-2.2211,-2.2195,-2.2195,-2.2196,-2.2196,0,0,0,0,0,0,0,-2.2164,-2.2165,-2.2186,-2.2179,-2.2178,-2.2176,-2.2177,-2.2188,-2.2188,-2.218,-2.2179,-2.2181,-2.2189,-2.2192,-2.2193,-2.2212,-2.2195,-2.2196,-2.2196,-2.2197,-2.2246,-2.2247,0,0,0,0,0,0,-2.2163,-2.2165,-2.2186,-2.2186,-2.2169,-2.2177,-2.2178,-2.2183,-2.2188,-2.2188,-2.2181,-2.218,-2.2191,-2.2192,-2.2194,-2.2216,-2.2196,-2.2197,-2.2197,-2.2245,-2.2246,-2.2247,0,0,0,0,0,0,-2.2163,-2.2165,-2.2185,-2.2175,-2.2178,-2.2178,-2.2184,-2.2184,-2.2187,-2.2189,-2.2188,-2.2185,-2.219,-2.2192,-2.2207,-2.2216,-2.2197,-2.2198,-2.2245,-2.2246,-2.2247,-2.2261,0,0,0,0,0,0,-2.2162,-2.2165,-2.2172,-2.2176,-2.2178,-2.2198,-2.2185,-2.2184,-2.2189,-2.2188,-2.2192,-2.2192,-2.219,-2.2205,-2.2208,-2.2217,-2.2199,-2.2244,-2.2245,-2.2246,-2.2259,-2.2262,-2.2265,0,0,0,0,0,-2.2161,-2.2175,-2.2172,-2.2175,-2.2187,-2.2198,-2.22,-2.2197,-2.219,-2.2197,-2.2198,-2.2192,-2.2215,-2.2207,-2.2209,-2.2219,-2.2243,-2.2245,-2.2246,-2.2258,-2.2262,-2.2265,0,0,0,0,0,0,-2.2172,-2.2175,-2.2172,-2.2188,-2.2193,-2.2196,-2.2205,-2.2201,-2.2208,-2.2206,-2.2203,-2.2204,-2.2219,-2.2221,-2.2211,-2.2238,-2.2228,-2.223,-2.2236,-2.2239,-2.2242,-2.2241,-2.22,0,0,0,0,0,-2.2176,-2.2185,-2.2188,-2.2202,-2.2204,-2.2205,-2.2209,-2.2207,-2.2212,-2.2214,-2.2216,-2.2221,-2.2229,-2.2235,-2.2243,-2.2261,-2.2261,-2.2269,-2.2272,-2.2274,-2.2275,-2.2285,-2.2288,-2.2252,-2.2252,-2.2252,0,0,-2.2185,-2.2188,-2.2194,-2.2204,-2.2207,-2.2217,-2.2206,-2.2216,-2.2223,-2.2215,-2.2229,-2.2231,-2.2236,-2.2253,-2.226,-2.2255,-2.2286,-2.2276,-2.2277,-2.2278,-2.2287,-2.229,-2.2293,-2.2254,-2.2253,-2.2253,0,0,-2.2205,-2.2209,-2.2221,-2.2225,-2.2231,-2.2231,-2.2234,-2.2239,-2.224,-2.2254,-2.2248,-2.2257,-2.2271,-2.2275,-2.2279,-2.2304,-2.2298,-2.2307,-2.2319,-2.2329,-2.2332,-2.2334,-2.2343,-2.2346,-2.2309,-2.2309,-2.2309,0,-2.2215,-2.2229,-2.2228,-2.2239,-2.2243,-2.2238,-2.225,-2.2254,-2.2262,-2.2266,-2.226,-2.2279,-2.2282,-2.2299,-2.2306,-2.2309,-2.2313,-2.2305,-2.2332,-2.2334,-2.2336,-2.2344,-2.2347,-2.2309,-2.2309,-2.2309,-2.2309,0,-2.2241,-2.2251,-2.226,-2.2269,-2.2275,-2.2286,-2.2287,-2.2293,-2.2291,-2.2292,-2.2307,-2.2311,-2.232,-2.2324,-2.2322,-2.2341,-2.2338,-2.2332,-2.2321,-2.2341,-2.2348,-2.2351,-2.2311,-2.231,-2.231,-2.231,0,0,-2.2267,-2.2275,-2.2279,-2.2283,-2.229,-2.2297,-2.2309,-2.2318,-2.2324,-2.233,-2.234,-2.2353,-2.2349,-2.2353,-2.2352,-2.2361,-2.2379,-2.2354,-2.2354,-2.2358,-2.2401,-2.2404,-2.2407,-2.2377,-2.2377,-2.2378,-2.24,0,-2.2287,-2.2307,-2.2307,-2.2326,-2.2335,-2.2331,-2.2341,-2.2347,-2.2349,-2.2357,-2.2359,-2.2369,-2.2362,-2.2365,-2.2373,-2.2375,-2.2388,-2.2374,-2.2385,-2.2386,-2.2382,-2.2411,-2.2415,-2.2435,-2.2403,-2.2403,-2.2404,0,-2.2313,-2.232,-2.234,-2.2347,-2.2351,-2.236,-2.2369,-2.2377,-2.2383,-2.2384,-2.239,-2.2388,-2.2401,-2.2391,-2.2408,-2.2399,-2.2404,-2.2406,-2.2406,-2.2406,-2.2395,-2.2411,-2.2442,-2.2444,-2.2408,-2.2408,-2.2408,0,-2.2329,-2.2344,-2.2358,-2.2362,-2.237,-2.2376,-2.238,-2.2386,-2.2392,-2.24,-2.2404,-2.2413,-2.2418,-2.2425,-2.2426,-2.2419,-2.2443,-2.2433,-2.2444,-2.2444,-2.2447,-2.2447,-2.2478,-2.2453,-2.2453,-2.2453,-2.2453,0,-2.235,-2.2362,-2.2365,-2.2374,-2.2388,-2.2388,-2.2402,-2.2405,-2.2411,-2.242,-2.2417,-2.2426,-2.2427,-2.2436,-2.2436,-2.245,-2.2453,-2.2454,-2.2453,-2.2453,-2.2453,-2.2455,-2.2453,-2.2454,-2.2453,-2.2453,-2.2453,0,-2.237,-2.2372,-2.2387,-2.2394,-2.2396,-2.2406,-2.2412,-2.242,-2.2422,-2.2434,-2.2437,-2.2441,-2.2451,-2.2453,-2.2466,-2.2466,-2.2482,-2.2481,-2.248,-2.2479,-2.2489,-2.2488,-2.2522,-2.2527,-2.2499,-2.25,-2.25,0,-2.2383,-2.2392,-2.24,-2.2406,-2.2411,-2.242,-2.2427,-2.2428,-2.2434,-2.2444,-2.2451,-2.2461,-2.247,-2.2487,-2.2491,-2.25,-2.2499,-2.251,-2.25,-2.25,-2.2498,-2.2497,-2.2498,-2.2512,-2.2512,-2.2512,-2.2512,0,-2.2406,-2.2407,-2.2416,-2.2425,-2.2433,-2.2441,-2.2448,-2.2453,-2.2455,-2.2463,-2.2474,-2.2481,-2.2494,-2.2504,-2.2514,-2.2518,-2.2516,-2.2516,-2.2519,-2.2518,-2.2516,-2.2516,-2.2484,-2.2515,-2.2514,-2.2514,-2.2514,-2.2514,-2.2422,-2.243,-2.2437,-2.2447,-2.2453,-2.246,-2.2469,-2.2473,-2.2482,-2.2493,-2.2493,-2.2505,-2.2513,-2.2526,-2.2531,-2.254,-2.2537,-2.2541,-2.2542,-2.2542,-2.2543,-2.2516,-2.2542,-2.2542,-2.2542,-2.2542,-2.2542,0,-2.2444,-2.2449,-2.2458,-2.2469,-2.2477,-2.2475,-2.2483,-2.249,-2.2501,-2.2508,-2.2517,-2.253,-2.254,-2.2546,-2.2556,-2.2563,-2.2562,-2.2565,-2.2564,-2.2565,-2.2546,-2.2542,-2.2566,-2.2566,-2.2566,-2.2566,-2.2566,-2.2566,-2.2456,-2.247,-2.2472,-2.2489,-2.2494,-2.2506,-2.2511,-2.2518,-2.2524,-2.2538,-2.2547,-2.2551,-2.2557,-2.2568,-2.2578,-2.2579,-2.2583,-2.2587,-2.2587,-2.2569,-2.2566,-2.2564,-2.256,-2.2588,-2.2588,-2.2606,-2.2606,-2.2606]},{"header":{"parameterUnit":"m.s-1","parameterCategory":1,"la1":30.2991,"la2":30.254,"lo1":-89.0895,"lo2":-89.0444,"dy":0.0017,"dx":0.0017,"nx":28,"ny":28,"refTime":"2024-05-04T21:00:00:Z","depth":0,"parameterNumber":3,"parameterNumberName":"V-component_of_WINDS"},"data":[0,0,0,0,0,0,0,0,0,0,0,0,0,0,0,0,0,0,0,0,0,0,0,0,0,0,0,0,0,0,0,0,0,0,0,0,0,0,0,0,0,0,0,0,0,0,0,0,0,0,0,0,0,0,0,0,0,0,3.604,3.604,0,3.6031,3.6031,3.6031,3.6074,3.6075,3.6077,3.6078,3.6063,3.6061,3.606,0,0,0,0,0,0,0,0,0,0,0,0,0,3.6091,3.609,3.604,3.604,3.604,3.6031,3.6031,3.6031,3.6074,3.6075,3.6077,3.6078,3.6063,3.6061,3.6059,0,0,0,0,0,0,0,0,0,0,0,0,0,3.6074,3.6089,3.604,3.6061,3.6062,3.6031,3.6031,3.6031,3.6073,3.6075,3.6077,3.6079,3.6064,3.6061,3.6059,3.6007,0,0,3.6052,3.6051,0,0,0,0,0,0,0,0,3.6075,3.6072,3.6058,3.6059,3.6061,3.6056,3.6044,3.6023,3.6073,3.6069,3.6078,3.608,3.6058,3.6057,3.6051,3.6006,3.6005,3.6052,3.605,3.6049,3.6049,0,0,0,0,0,0,0,3.6076,3.6073,3.6037,3.6058,3.606,3.6069,3.6069,3.604,3.6053,3.607,3.6073,3.6071,3.606,3.6053,3.6051,3.6005,3.6052,3.605,3.6048,3.6047,3.5919,3.5917,0,0,0,0,0,0,3.6075,3.6073,3.6037,3.6036,3.6073,3.6066,3.6066,3.6056,3.6054,3.6055,3.607,3.6073,3.6056,3.6053,3.605,3.599,3.6049,3.6047,3.6046,3.5921,3.5919,3.5916,0,0,0,0,0,0,3.6076,3.6072,3.6037,3.6056,3.6052,3.6064,3.6051,3.6054,3.6048,3.6054,3.6056,3.6061,3.6057,3.6053,3.6018,3.599,3.6046,3.6044,3.5923,3.592,3.5917,3.5869,0,0,0,0,0,0,3.6077,3.6072,3.6052,3.6055,3.6051,3.6006,3.605,3.6053,3.6044,3.6049,3.6046,3.6047,3.6058,3.6021,3.6016,3.5988,3.6042,3.5926,3.5922,3.5918,3.5873,3.5865,3.5857,0,0,0,0,0,3.6079,3.6037,3.6051,3.6047,3.6028,3.6005,3.6002,3.6018,3.6042,3.6022,3.6027,3.6047,3.5994,3.6017,3.6011,3.5982,3.5928,3.5923,3.5919,3.5876,3.5866,3.5858,0,0,0,0,0,0,3.6028,3.6038,3.6054,3.6012,3.6007,3.6012,3.5988,3.6006,3.5993,3.5998,3.6017,3.6016,3.5977,3.5976,3.6002,3.5933,3.5965,3.5959,3.5935,3.5925,3.5917,3.5919,3.604,0,0,0,0,0,3.6013,3.5995,3.6004,3.5966,3.5963,3.5976,3.5966,3.5979,3.5975,3.5972,3.5974,3.5967,3.595,3.5937,3.5921,3.5873,3.5874,3.585,3.5843,3.5836,3.5831,3.5807,3.5798,3.5902,3.5902,3.5902,0,0,3.5979,3.5983,3.597,3.5956,3.5954,3.5934,3.5974,3.595,3.5936,3.5968,3.5936,3.5937,3.5931,3.5889,3.5871,3.5887,3.5802,3.583,3.5825,3.5823,3.5802,3.5792,3.5783,3.5899,3.5899,3.59,0,0,3.5909,3.5909,3.5879,3.5877,3.5875,3.5884,3.5877,3.5879,3.5882,3.5851,3.5875,3.5857,3.5826,3.5821,3.5814,3.5745,3.5764,3.5739,3.5698,3.5675,3.5667,3.566,3.5636,3.5628,3.5734,3.5734,3.5734,0,3.5868,3.584,3.5861,3.5837,3.583,3.5862,3.5831,3.5827,3.5819,3.5813,3.5832,3.5795,3.5793,3.5752,3.5736,3.5729,3.5721,3.5739,3.5667,3.566,3.5653,3.5631,3.5622,3.5731,3.5731,3.5731,3.5732,0,3.579,3.5771,3.5746,3.5741,3.5731,3.5704,3.572,3.5707,3.5722,3.5728,3.5696,3.5695,3.5681,3.5672,3.5684,3.5633,3.5643,3.5664,3.5697,3.564,3.562,3.5611,3.5727,3.5728,3.5728,3.5729,0,0,3.5686,3.5695,3.5685,3.5684,3.5685,3.567,3.5644,3.5632,3.5622,3.5615,3.5594,3.5568,3.5588,3.5581,3.5593,3.5573,3.552,3.5596,3.5596,3.5583,3.5465,3.545,3.544,3.5533,3.5531,3.553,3.5466,0,3.5619,3.5578,3.5596,3.5552,3.5535,3.5566,3.5543,3.5541,3.5547,3.5533,3.5539,3.5521,3.5548,3.5544,3.5525,3.553,3.5497,3.5535,3.5513,3.5512,3.5515,3.5429,3.5413,3.5353,3.5458,3.5457,3.5456,0,3.5534,3.5528,3.5483,3.5489,3.5483,3.5463,3.5454,3.544,3.5438,3.5444,3.5437,3.5455,3.543,3.5463,3.5428,3.5454,3.5446,3.5447,3.5445,3.5444,3.5481,3.5427,3.5334,3.5326,3.5443,3.5444,3.5445,0,3.5465,3.5444,3.5416,3.5414,3.542,3.5405,3.5407,3.5407,3.5399,3.5391,3.5387,3.5375,3.5368,3.5358,3.5372,3.5395,3.5336,3.537,3.534,3.534,3.5327,3.5328,3.5233,3.532,3.532,3.532,3.5321,0,3.5388,3.536,3.5385,3.5368,3.5337,3.5358,3.5327,3.5331,3.5332,3.5315,3.534,3.5323,3.5342,3.5327,3.5337,3.5308,3.5305,3.5309,3.5312,3.5307,3.5307,3.5302,3.5307,3.5318,3.5319,3.5319,3.5319,0,3.5306,3.5321,3.5293,3.5302,3.5304,3.5281,3.5288,3.5272,3.5281,3.5259,3.5255,3.5268,3.5252,3.5266,3.5249,3.5256,3.5218,3.5226,3.5219,3.5222,3.5193,3.5196,3.5092,3.508,3.5174,3.5173,3.5173,0,3.5256,3.5236,3.5244,3.5236,3.5237,3.5222,3.5216,3.5236,3.5227,3.5225,3.5209,3.5196,3.5187,3.5159,3.5167,3.5155,3.5164,3.5128,3.5162,3.5158,3.5165,3.5166,3.5165,3.5121,3.512,3.5119,3.5119,0,3.5167,3.5176,3.5167,3.516,3.5152,3.5147,3.5144,3.5136,3.5157,3.5146,3.5132,3.5124,3.5109,3.5096,3.5087,3.5087,3.5106,3.5108,3.5101,3.5096,3.5094,3.5096,3.5202,3.511,3.5111,3.5112,3.5112,3.5113,3.51,3.5084,3.5088,3.5077,3.5078,3.5075,3.5061,3.5069,3.5058,3.5049,3.5061,3.5044,3.5044,3.5034,3.5032,3.5018,3.5033,3.5022,3.5019,3.5017,3.5013,3.5096,3.5016,3.5017,3.5017,3.5017,3.5017,0,3.5013,3.5018,3.5008,3.5005,3.4996,3.5017,3.5015,3.5006,3.4991,3.4991,3.4982,3.4966,3.4954,3.4961,3.495,3.4938,3.4946,3.4934,3.4936,3.4936,3.5,3.5008,3.4928,3.4928,3.4928,3.4928,3.4928,3.4928,3.4967,3.4943,3.4953,3.4928,3.4933,3.4918,3.4915,3.4913,3.4913,3.4895,3.4886,3.4891,3.4894,3.4884,3.4874,3.4876,3.4872,3.4857,3.4862,3.4922,3.4931,3.4939,3.4947,3.4855,3.4855,3.48,3.4799,3.4799]}]]